Weather History for KCYS - April, 2013

Change the Weather History Date:

Saturday, April 13, 2013

  Actual Average Record
Temperature  
Mean Temperature 43 °F 42 °F  
Max Temperature 56 °F 54 °F 79 °F (2006)
Min Temperature 29 °F 30 °F 4 °F (1903)
Degree Days  
Heating Degree Days 22 23  
Month to date heating degree days 368 319  
Since 1 July heating degree days 6231 6239  
Cooling Degree Days 0 0  
Month to date cooling degree days 0 0  
Year to date cooling degree days 0 0  
Moisture  
Dew Point 26 °F    
Average Humidity 57    
Maximum Humidity 92    
Minimum Humidity 22    
Precipitation  
Precipitation 0.07 in 0.06 in 1.62 in (1967)
Month to date precipitation 0.71 0.65  
Year to date precipitation 2.22 2.50  
Snow  
Snow 0.00 in 0.40 in 12.70 in (1967)
Month to date snowfall 10.0 5.2  
Since 1 July snowfall 55.2 53.0  
Snow Depth 0.00 in    
Sea Level Pressure  
Sea Level Pressure 29.63 in    
Wind  
Wind Speed 12 mph (SSW)    
Max Wind Speed 29 mph    
Max Gust Speed 38 mph    
Visibility 10 miles    
Events Rain    
T = Trace of Precipitation, MM = Missing Value Source: NWS Daily Summary

Daily Weather History Graph

Daily Weather History Graph

Search for Another Location

Airport or City:

Trip Planner

Search our weather history database for the weather conditions in past years. The results will help you decide how hot, cold, wet, or windy it might be!

Date:

Astronomy

Apr. 13, 2013 Rise Set
Actual Time 6:22 AM MDT 7:37 PM MDT
Civil Twilight 5:54 AM MDT 8:05 PM MDT
Nautical Twilight 5:20 AM MDT 8:40 PM MDT
Astronomical Twilight 4:44 AM MDT 9:16 PM MDT
Moon 8:14 AM MDT (4/13) 11:05 PM MDT (4/13)
Length of Visible Light 14h 11m
Length of Day
13h 14m
Waxing Crescent, 11% of the Moon is Illuminated
Apr 13
Waxing Crescent
Apr 18
First Quarter
Apr 25
Full
May 2
Last Quarter
May 9
New

Hourly Weather History & Observations

Time (MDT) Temp. Windchill Dew Point Humidity Pressure Visibility Wind Dir Wind Speed Gust Speed Precip Events Conditions
12:53 AM 32.0 °F 22.1 °F 28.0 °F 85% 29.96 in 10.0 mi South 13.8 mph - N/A   Overcast
1:15 AM 32.0 °F 23.0 °F 28.4 °F 87% 29.91 in 10.0 mi South 11.5 mph - N/A   Overcast
1:29 AM 32.0 °F 23.0 °F 28.4 °F 87% 29.90 in 10.0 mi South 11.5 mph - N/A   Overcast
1:53 AM 32.0 °F 20.8 °F 28.9 °F 88% 29.92 in 9.0 mi South 17.3 mph 27.6 mph N/A   Overcast
2:24 AM 32.0 °F 20.5 °F 28.4 °F 87% 29.88 in 10.0 mi SSW 18.4 mph - N/A   Overcast
2:53 AM 32.0 °F 21.6 °F 30.0 °F 92% 29.89 in 10.0 mi South 15.0 mph - N/A   Overcast
3:43 AM 32.0 °F 21.6 °F 28.4 °F 87% 29.84 in 10.0 mi South 15.0 mph - N/A   Overcast
3:53 AM 30.9 °F 21.2 °F 28.9 °F 92% 29.87 in 10.0 mi South 12.7 mph - N/A   Overcast
4:04 AM 30.2 °F 20.8 °F 28.4 °F 93% 29.83 in 10.0 mi South 11.5 mph - N/A   Overcast
4:53 AM 30.0 °F 20.5 °F 27.0 °F 88% 29.83 in 10.0 mi SSW 11.5 mph - N/A   Overcast
5:09 AM 28.4 °F 19.7 °F 26.6 °F 93% 29.79 in 10.0 mi SW 9.2 mph - N/A   Scattered Clouds
5:53 AM 28.9 °F 23.9 °F 25.0 °F 85% 29.78 in 10.0 mi SW 4.6 mph - N/A   Clear
6:53 AM 28.9 °F 21.1 °F 27.0 °F 92% 29.75 in 10.0 mi SW 8.1 mph - N/A   Clear
7:53 AM 32.0 °F 22.1 °F 28.0 °F 85% 29.72 in 10.0 mi SW 13.8 mph - N/A   Clear
8:53 AM 34.0 °F 26.0 °F 28.9 °F 82% 29.68 in 8.0 mi SSW 10.4 mph - N/A   Clear
9:53 AM 41.0 °F 34.3 °F 28.9 °F 62% 29.63 in 10.0 mi South 11.5 mph - N/A   Clear
10:53 AM 48.9 °F - 21.9 °F 35% 29.55 in 10.0 mi South 12.7 mph - N/A   Clear
11:39 AM 55.4 °F - 15.8 °F 21% 29.58 in 10.0 mi WSW 26.5 mph 35.7 mph N/A   Clear
11:53 AM 54.0 °F - 16.0 °F 22% 29.51 in 10.0 mi West 19.6 mph 29.9 mph N/A   Clear
12:53 PM 50.0 °F - 24.1 °F 36% 29.52 in 10.0 mi SSW 11.5 mph - N/A   Clear
1:53 PM 50.0 °F - 21.0 °F 32% 29.49 in 10.0 mi South 9.2 mph - N/A   Overcast
2:53 PM 52.0 °F - 26.1 °F 37% 29.45 in 10.0 mi South 10.4 mph - N/A   Mostly Cloudy
3:53 PM 54.0 °F - 23.0 °F 30% 29.42 in 10.0 mi SSW 9.2 mph - N/A   Partly Cloudy
4:53 PM 53.1 °F - 19.9 °F 27% 29.42 in 10.0 mi South 9.2 mph - N/A   Mostly Cloudy
5:53 PM 52.0 °F - 21.9 °F 31% 29.44 in 10.0 mi Calm Calm - N/A   Mostly Cloudy
6:53 PM 50.0 °F - 26.1 °F 39% 29.44 in 10.0 mi Calm Calm - N/A   Mostly Cloudy
7:53 PM 46.9 °F - 28.9 °F 50% 29.43 in 10.0 mi West 13.8 mph - N/A   Overcast
8:53 PM 44.1 °F 37.7 °F 30.9 °F 60% 29.48 in 10.0 mi NNW 12.7 mph 21.9 mph N/A   Overcast
9:53 PM 39.0 °F 31.8 °F 34.0 °F 82% 29.49 in 6.0 mi NW 11.5 mph 19.6 mph 0.02 in Rain Rain
10:35 PM 37.4 °F 30.8 °F 33.8 °F 87% 29.53 in 10.0 mi West 9.2 mph - 0.05 in Rain Light Rain
10:53 PM 37.9 °F 29.6 °F 34.0 °F 86% 29.43 in 10.0 mi West 13.8 mph - 0.05 in Rain Light Rain
11:53 PM 39.0 °F 30.3 °F 28.0 °F 65% 29.36 in 10.0 mi West 16.1 mph 27.6 mph 0.00 in   Overcast